Location: *
(48.8667°N, 2.3331°E)
Time: 04:27:08
(UTC+00:00)

Cosmos 2344 - Pass Details

Date: 09 April 2020
Orbit: 1251 x 2991 km, 63.3° (Epoch: 29 May)

Event Time Altitude Azimuth Distance (km) Brightness Sun altitude
Rises 22:23:00 0° 317° (NW) 4,602 7.6 -29.9°
Reaches altitude 10° 22:25:37 10° 317° (NW) 3,760 6.9 -30.0°
Maximum altitude 22:35:07 81° 232° (SW) 1,954 4.3 -30.7°
Enters shadow 22:38:43 53° 155° (SSE) 2,452 4.5 -30.9°
